Regional Weather Roundup
Issued by NWS

Home | Current Version | Previous Version | Text Only | Print | Product List | Glossary Off
Versions: 1 2 3 4 5 6 7 8 9 10 11 12 13 14 15 16 17 18 19 20 21 22 23 24 25 26 27 28 29 30 31 32 33 34 35 36 37 38 39 40 41 42 43 44 45 46 47 48 49 50

319
ASUS45 KTFX 230610
RWRMT
MONTANA REGIONAL WEATHER ROUNDUP
NATIONAL WEATHER SERVICE GREAT FALLS MT
1100 PM MST WED FEB 22 2017

NOTE: "FAIR" INDICATES FEW OR NO CLOUDS BELOW 12000 FEET WITH NO
SIGNIFICANT WEATHER AND/OR OBSTRUCTIONS TO VISIBILITY.

MTZ001>007-043-230700-
WEST OF THE DIVIDE

CITY           SKY/WX    TMP DP  RH WIND       PRES   REMARKS
KALISPELL      CLEAR     23  20  88 CALM      29.94S
MISSOULA       CLOUDY    28  27  96 SE5       29.92F
BUTTE          CLOUDY    22  20  92 S3        29.81F
MULLAN PASS    CLOUDY    20  17  88 N5        29.84F FOG
ANACONDA         N/A     28  21  74 N7        29.84S WCI  21
DEER LODGE       N/A     30  21  69 NW7       29.88S WCI  23
EUREKA           N/A     25  21  86 CALM      29.99R
HAMILTON         N/A     30  25  80 NW7       29.89S WCI  23
LIBBY            N/A     27  25  93 CALM      29.98S
PLAINS           N/A     32  26  78 E2        29.98S
RONAN            N/A     24  20  85 CALM      29.97S
$$

MTZ008-052>055-230700-
SOUTHWEST MONTANA

CITY           SKY/WX    TMP DP  RH WIND       PRES   REMARKS
BOZEMAN        CLOUDY    25  22  88 NW7       29.84F WCI  17
DILLON         CLOUDY    28  23  81 NE9       29.77F WCI  19
W YELLOWSTONE  CLOUDY    12  10  92 SW3       29.75F
ENNIS          PTCLDY    18  16  93 CALM      29.83F
THREE FORKS      N/A     27  10  48 CALM      29.85F
TWIN BRIDGES     N/A     29  23  78 N13       29.80F WCI  19
$$

MTZ009-010-012-014-046-048-049-054-230700-
EAST SLOPES AND CENTRAL MONTANA

CITY           SKY/WX    TMP DP  RH WIND       PRES   REMARKS
CUT BANK       LGT SNOW  26  24  92 NE15      29.96R FOG     WCI  14
GREAT FALLS    CLOUDY    30  25  81 NW3       29.94F
MALMSTROM AFB  LGT RAIN  30  28  93 N5        29.95F
HELENA         CLOUDY    32  26  78 NW8       29.88F WCI  25
AUGUSTA        CLOUDY    27  24  89 N8        29.92F WCI  19
BOWMANS CRNR   FLURRIES  27  25  92 N7        29.90F WCI  19
CHOTEAU          N/A     28  27  93 N5        29.97S
CONRAD           N/A     27  26  96 CALM      29.98R
POWER          CLOUDY    27  26  96 NW6       29.94S WCI  21
RAYNESFORD     CLOUDY    29  27  95 W7        29.93S WCI  21
ULM            CLOUDY    30  26  86 MISG      29.95S
$$

MTZ011-013-016-021-045-047-050-051-230700-
NORTH CENTRAL MONTANA

CITY           SKY/WX    TMP DP  RH WIND       PRES   REMARKS
HAVRE          LGT SNOW  30  29  96 N7        29.99R FOG     WCI  23
LEWISTOWN      CLOUDY    27  25  92 E6        29.90S WCI  20
N BAR RANCH    FOG       25  25 100 SE6       29.91F VSB 1/4 WCI  18
CHINOOK          N/A     30  30 100 N6        30.00R WCI  24
DENTON         LGT SNOW  29  29  96 NW9       29.88S WCI  21
FORT BENTON      N/A     32  28  86 MISG      29.98S
GEYSER         MOCLDY    28  25  89 W7        29.90F WCI  21
GRASS RANGE    FLURRIES  26  26  97 E3        29.89F
JUDITH GAP     FLURRIES  25  24  95 N5        29.88S
ROY            FLURRIES  27  26  96 MISG      29.92F
STANFORD       MOCLDY    25  23  92 NW13      29.89S WCI  13
WINIFRED       LGT SNOW  26  25  96 E13       29.91S WCI  15
$$

MTZ017>020-022>027-061-062-230700-
NORTHEAST MONTANA

CITY           SKY/WX    TMP DP  RH WIND       PRES   REMARKS
GLASGOW        CLOUDY    27  25  92 CALM      29.99S FOG
JORDAN           N/A     27  24  89 CALM      29.97F
SIDNEY         LGT SNOW  28  26  92 N3        30.02S FOG
WOLF POINT     CLOUDY    25  22  88 CALM      30.01S
PLENTYWOOD       N/A     30  25  80 CALM      29.99S
POPLAR           N/A     27  25  93 CALM      30.01S
SCOBEY           N/A     30  20  66 CALM      29.96S
$$

MTZ028>42-056>058-230700-
SOUTHCENTRAL AND SOUTHEAST MONTANA

CITY           SKY/WX    TMP DP  RH WIND       PRES   REMARKS
BAKER          CLOUDY    27  24  89 NE8       29.94F WCI  19
BILLINGS       CLOUDY    30  28  92 NE9       29.88F WCI  22
LIVINGSTON     FLURRIES  30  25  81 E13       29.83F WCI  20
MILES CITY     CLOUDY    29  24  82 NE7       29.95F WCI  22
BIG TIMBER     CLOUDY    28  28 100 N8        29.88F WCI  20
EKALAKA          N/A     26  23  88 N5        29.88F
FORSYTH          N/A     30  27  86 E6        29.92F WCI  24
HARLOWTON      LGT SNOW  28  26  96 E7        29.88S WCI  20
LAUREL           N/A     28  24  85 CALM      29.87F
$$

REGIONAL REPORTS...DAKOTAS

CITY           SKY/WX    TMP DP  RH WIND       PRES   REMARKS
WILLISTON      CLOUDY    28  25  88 SW6       30.01S WCI  22
MINOT          CLOUDY    33  28  81 W9        29.97S WCI  25
DICKINSON      CLOUDY    25  22  88 N6        29.94F WCI  18
BEACH            N/A    N/A N/A N/A MISG        N/A
CROSBY         CLOUDY    32  30  93 W7        30.00S WCI  26
TIOGA          CLOUDY    28  28 100 W7        30.00S WCI  21
WATFORD CITY   LGT SNOW  28  28 100 CALM      30.01S
BISMARCK       CLOUDY    31  25  78 N5        30.00S
GRAND FORKS    MOCLDY    29  21  72 NW8       29.97R WCI  21
FARGO          CLEAR     31  27  85 N13       29.95R WCI  21
BUFFALO SD       N/A     29  27  92 E10       29.86S WCI  20
RAPID CITY     CLOUDY    31  27  85 NE13      29.89F WCI  21
$$

REGIONAL REPORTS...WYOMING/IDAHO/WASHINGTON

CITY           SKY/WX    TMP DP  RH WIND       PRES   REMARKS
GILLETTE       CLOUDY    30  26  85 NE13      29.85S WCI  20
SHERIDAN       CLOUDY    31  27  85 SE8       29.86S WCI  23
BUFFALO WY     CLOUDY    30  27  88 NE6       29.83F WCI  24
CODY           FLURRIES  28  26  92 N9        29.82F WCI  19
YELLOWSTONE LA   N/A      1  -1  91 NW3       29.74S
IDAHO FALLS    CLOUDY    31  28  89 N9        29.71F WCI  23
SALMON         CLOUDY    34  25  69 NE10      29.79S WCI  26
BOISE          FLURRIES  33  30  88 NW16      29.84S WCI  23
SPOKANE        PTCLDY    27  24  89 CALM      30.01F
$$

REGIONAL REPORTS...ALBERTA

CITY           SKY/WX    TMP DP  RH WIND       PRES   REMARKS
EDMONTON       CLOUDY    21  16  79 W6        30.07S WCI  14
LETHBRIDGE     FLURRIES  27 N/A N/A NE13      30.02S WCI  16
MEDICINE HAT   CLOUDY    25  23  93 NE5       30.07R
WATERTON GATE    N/A     21  19  93 N7          N/A  WCI  13
CARDSTON         N/A     25  23  93 NE10        N/A  WCI  15
MILK RIVER       N/A     25  25 100 NE14        N/A  WCI  13
$$

REGIONAL REPORTS...SASKATCHEWAN

CITY           SKY/WX    TMP DP  RH WIND       PRES   REMARKS
SWIFT CURRENT  LGT SNOW  23  23 100 N13       30.00R WCI  11
REGINA         CLOUDY    27  21  80 N15       30.02R WCI  15
SASKATOON      FLURRIES  25  18  74 NW8       30.07S WCI  16
VAL MARIE        N/A     30  25  80 SW5         N/A
ROCKGLEN         N/A     30  25  80 W6          N/A  WCI  24
$$




USA.gov is the U.S. government's official web portal to all federal, state and local government web resources and services.